• In Belarus
  • List of Countries
  • For 7 days
  • Water Temperature
  • Satellite Maps
  • Weather Map
  • Weather Widgets
  • user-avatar
    Login

    Hourly Weather Morpeth

    Today, 25 May, Saturday

    Time Temperature Precipitation Wind Pressure Humidity
    00:00 +8°C° 0 mm 2 mps 758 mmHg 89%
    01:00 +8°C° 0 mm 2 mps 758 mmHg 90%
    02:00 +7°C° 0 mm 2 mps 758 mmHg 90%
    03:00 +7°C° 0 mm 2 mps 758 mmHg 91%
    04:00 +8°C° 0 mm 2 mps 758 mmHg 89%
    05:00 +8°C° 0 mm 2 mps 758 mmHg 87%
    06:00 +9°C° 0 mm 2 mps 758 mmHg 86%
    07:00 +12°C° 0 mm 2 mps 758 mmHg 80%
    08:00 +13°C° 0 mm 1 mps 758 mmHg 75%
    09:00 +15°C° 0 mm 1 mps 758 mmHg 70%
    10:00 +15°C° 0 mm 2 mps 757 mmHg 65%
    11:00 +16°C° 0 mm 2 mps 757 mmHg 61%
    12:00 +17°C° 0 mm 3 mps 757 mmHg 57%
    13:00 +16°C° 0.2 mm 3 mps 757 mmHg 64%
    14:00 +14°C° 0.2 mm 4 mps 756 mmHg 72%
    15:00 +14°C° 0.2 mm 4 mps 756 mmHg 79%
    16:00 +13°C° 1.3 mm 4 mps 755 mmHg 83%
    17:00 +13°C° 1.3 mm 4 mps 755 mmHg 87%
    18:00 +12°C° 1.3 mm 4 mps 754 mmHg 91%
    19:00 +13°C° 0.5 mm 5 mps 754 mmHg 92%
    20:00 +13°C° 0.5 mm 5 mps 753 mmHg 92%
    21:00 +14°C° 0.5 mm 6 mps 753 mmHg 92%
    22:00 +14°C° 0.2 mm 6 mps 753 mmHg 92%
    23:00 +14°C° 0.2 mm 6 mps 753 mmHg 92%

    Tomorrow, 26 May, Sunday

    Time Temperature Precipitation Wind Pressure Humidity
    00:00 +14°C° 0.2 mm 6 mps 752 mmHg 92%
    01:00 +14°C° 0.2 mm 5 mps 752 mmHg 93%
    02:00 +14°C° 0.2 mm 4 mps 752 mmHg 93%
    03:00 +13°C° 0.2 mm 3 mps 751 mmHg 94%
    04:00 +13°C° 0.8 mm 3 mps 751 mmHg 94%
    05:00 +13°C° 0.8 mm 3 mps 751 mmHg 94%
    06:00 +13°C° 0.8 mm 3 mps 750 mmHg 95%
    07:00 +14°C° 0.8 mm 3 mps 750 mmHg 94%
    08:00 +14°C° 0.8 mm 4 mps 750 mmHg 93%
    09:00 +14°C° 0.8 mm 5 mps 750 mmHg 92%
    10:00 +14°C° 0.2 mm 5 mps 750 mmHg 91%
    11:00 +14°C° 0.2 mm 4 mps 750 mmHg 91%
    12:00 +14°C° 0.2 mm 4 mps 750 mmHg 91%
    13:00 +13°C° 0.1 mm 5 mps 750 mmHg 89%
    14:00 +13°C° 0.1 mm 6 mps 750 mmHg 87%
    15:00 +13°C° 0.1 mm 6 mps 750 mmHg 85%
    16:00 +12°C° 0 mm 7 mps 750 mmHg 83%
    17:00 +12°C° 0 mm 8 mps 750 mmHg 81%
    18:00 +12°C° 0 mm 8 mps 750 mmHg 79%
    19:00 +11°C° 0 mm 8 mps 750 mmHg 78%
    20:00 +10°C° 0 mm 8 mps 750 mmHg 76%
    21:00 +10°C° 0 mm 8 mps 750 mmHg 75%
    22:00 +9°C° 0 mm 8 mps 750 mmHg 77%
    23:00 +9°C° 0 mm 8 mps 750 mmHg 78%

    Day after tomorrow, 27 May, Monday

    Time Temperature Precipitation Wind Pressure Humidity
    00:00 +9°C° 0 mm 7 mps 750 mmHg 80%
    01:00 +9°C° 0 mm 7 mps 751 mmHg 79%
    02:00 +9°C° 0 mm 6 mps 751 mmHg 78%
    03:00 +9°C° 0 mm 6 mps 751 mmHg 77%
    04:00 +9°C° 0 mm 5 mps 751 mmHg 79%
    05:00 +9°C° 0 mm 5 mps 751 mmHg 81%
    06:00 +10°C° 0 mm 4 mps 751 mmHg 84%
    07:00 +11°C° 0.2 mm 4 mps 751 mmHg 82%
    08:00 +11°C° 0.2 mm 4 mps 751 mmHg 81%
    09:00 +12°C° 0.2 mm 4 mps 751 mmHg 80%
    10:00 +12°C° 0.5 mm 4 mps 751 mmHg 79%
    11:00 +12°C° 0.5 mm 4 mps 751 mmHg 79%
    12:00 +13°C° 0.5 mm 5 mps 751 mmHg 79%
    13:00 +13°C° 0.8 mm 5 mps 751 mmHg 79%
    14:00 +13°C° 0.8 mm 5 mps 751 mmHg 80%
    15:00 +13°C° 0.8 mm 5 mps 750 mmHg 80%
    16:00 +12°C° 0.8 mm 5 mps 750 mmHg 82%
    17:00 +12°C° 0.8 mm 4 mps 750 mmHg 83%
    18:00 +12°C° 0.8 mm 4 mps 749 mmHg 84%
    19:00 +11°C° 0.3 mm 4 mps 749 mmHg 86%
    20:00 +10°C° 0.3 mm 4 mps 749 mmHg 88%
    21:00 +8°C° 0.3 mm 4 mps 749 mmHg 89%
    22:00 +8°C° 0 mm 5 mps 749 mmHg 90%
    23:00 +7°C° 0 mm 5 mps 749 mmHg 90%

    28 May, Tuesday

    Time Temperature Precipitation Wind Pressure Humidity
    00:00 +7°C° 0 mm 5 mps 749 mmHg 91%
    01:00 +6°C° 0 mm 5 mps 749 mmHg 92%
    02:00 +6°C° 0 mm 5 mps 749 mmHg 92%
    03:00 +6°C° 0 mm 5 mps 749 mmHg 92%
    04:00 +7°C° 0 mm 5 mps 749 mmHg 92%
    05:00 +7°C° 0 mm 5 mps 750 mmHg 91%
    06:00 +8°C° 0 mm 6 mps 750 mmHg 90%
    07:00 +8°C° 0.2 mm 6 mps 751 mmHg 90%
    08:00 +8°C° 0.2 mm 6 mps 751 mmHg 90%
    09:00 +8°C° 0.2 mm 7 mps 752 mmHg 91%
    10:00 +9°C° 0.1 mm 6 mps 752 mmHg 85%
    11:00 +10°C° 0.1 mm 6 mps 753 mmHg 80%
    12:00 +12°C° 0.1 mm 5 mps 753 mmHg 75%
    13:00 +12°C° 0.1 mm 5 mps 754 mmHg 72%
    14:00 +12°C° 0.1 mm 5 mps 754 mmHg 70%
    15:00 +12°C° 0.1 mm 5 mps 755 mmHg 67%
    16:00 +10°C° 0 mm 5 mps 755 mmHg 69%
    17:00 +9°C° 0 mm 5 mps 756 mmHg 71%
    18:00 +9°C° 0 mm 5 mps 756 mmHg 73%
    19:00 +8°C° 0 mm 4 mps 757 mmHg 73%
    20:00 +7°C° 0 mm 4 mps 757 mmHg 73%
    21:00 +8°C° 0 mm 3 mps 758 mmHg 74%
    22:00 +8°C° 0 mm 3 mps 758 mmHg 72%
    23:00 +7°C° 0 mm 2 mps 758 mmHg 71%

    29 May, Wednesday

    Time Temperature Precipitation Wind Pressure Humidity
    00:00 +7°C° 0 mm 2 mps 759 mmHg 69%
    01:00 +8°C° 0 mm 1 mps 759 mmHg 69%
    02:00 +8°C° 0 mm 1 mps 759 mmHg 69%
    03:00 +8°C° 0 mm 1 mps 759 mmHg 68%
    04:00 +8°C° 0 mm 1 mps 759 mmHg 70%
    05:00 +8°C° 0 mm 2 mps 759 mmHg 72%
    06:00 +8°C° 0 mm 3 mps 759 mmHg 74%
    07:00 +9°C° 0 mm 3 mps 759 mmHg 74%
    08:00 +10°C° 0 mm 4 mps 759 mmHg 74%
    09:00 +11°C° 0 mm 4 mps 759 mmHg 74%
    10:00 +12°C° 0.1 mm 4 mps 759 mmHg 69%
    11:00 +13°C° 0.1 mm 4 mps 759 mmHg 65%
    12:00 +13°C° 0.1 mm 4 mps 759 mmHg 60%
    13:00 +13°C° 0 mm 4 mps 759 mmHg 60%
    14:00 +13°C° 0 mm 5 mps 759 mmHg 61%
    15:00 +13°C° 0 mm 5 mps 758 mmHg 61%
    16:00 +13°C° 0 mm 5 mps 758 mmHg 64%
    17:00 +12°C° 0 mm 5 mps 758 mmHg 67%
    18:00 +10°C° 0 mm 6 mps 758 mmHg 70%
    19:00 +9°C° 0.3 mm 5 mps 757 mmHg 76%
    20:00 +8°C° 0.3 mm 4 mps 757 mmHg 81%
    21:00 +8°C° 0.3 mm 3 mps 757 mmHg 87%
    22:00 +8°C° 0.9 mm 5 mps 755 mmHg 88%
    23:00 +8°C° 0.9 mm 6 mps 754 mmHg 89%

    30 May, Thursday

    Time Temperature Precipitation Wind Pressure Humidity
    00:00 +9°C° 0.9 mm 7 mps 753 mmHg 90%
    01:00 +10°C° 0.4 mm 7 mps 752 mmHg 90%
    02:00 +11°C° 0.4 mm 8 mps 751 mmHg 90%
    03:00 +12°C° 0.4 mm 9 mps 750 mmHg 90%
    04:00 +12°C° 0.2 mm 9 mps 750 mmHg 90%
    05:00 +13°C° 0.2 mm 9 mps 750 mmHg 90%
    06:00 +13°C° 0.2 mm 8 mps 749 mmHg 90%
    07:00 +13°C° 0.1 mm 8 mps 750 mmHg 89%
    08:00 +14°C° 0.1 mm 7 mps 750 mmHg 88%
    09:00 +15°C° 0.1 mm 7 mps 751 mmHg 86%
    10:00 +13°C° 0.5 mm 6 mps 751 mmHg 88%
    11:00 +10°C° 0.5 mm 6 mps 752 mmHg 90%
    12:00 +9°C° 0.5 mm 5 mps 753 mmHg 92%
    13:00 +8°C° 0.1 mm 5 mps 753 mmHg 91%
    14:00 +8°C° 0.1 mm 5 mps 754 mmHg 91%
    15:00 +8°C° 0.1 mm 4 mps 754 mmHg 90%
    16:00 +8°C° 0.1 mm 4 mps 755 mmHg 88%
    17:00 +9°C° 0.1 mm 3 mps 755 mmHg 86%
    18:00 +9°C° 0.1 mm 3 mps 756 mmHg 84%
    19:00 +8°C° 0 mm 2 mps 757 mmHg 83%
    20:00 +8°C° 0 mm 2 mps 757 mmHg 82%
    21:00 +7°C° 0 mm 2 mps 758 mmHg 81%
    22:00 +8°C° 0 mm 1 mps 759 mmHg 81%
    23:00 +7°C° 0 mm 1 mps 759 mmHg 81%
    Show more